Weather History for Columbia, MO

Change the Weather History Date:

Saturday, June 15, 2013

  Actual Average Record
Temperature  
Mean Temperature 76 °F 73 °F  
Max Temperature 85 °F 83 °F 96 °F (1952)
Min Temperature 67 °F 63 °F 46 °F (1917)
Degree Days  
Heating Degree Days 0 0  
Month to date heating degree days 6 9  
Since 1 June heating degree days 6 9  
Since 1 July heating degree days 4902 5021  
Cooling Degree Days 11 8  
Month to date cooling degree days 80 97  
Year to date cooling degree days 214 200  
Since 1 June cooling degree days 80 97  
Growing Degree Days 25 (Base 50)    
Moisture  
Dew Point 67 °F    
Average Humidity 79    
Maximum Humidity 93    
Minimum Humidity 65    
Precipitation  
Precipitation 0.93 in 0.15 in 3.18 in (1898)
Month to date precipitation 1.25 2.25  
Year to date precipitation 27.96 18.80  
Snow  
Snow 0.00 in 0.00 in 0.00 in (2012)
Month to date snowfall 0.0 0.0  
Since 1 June snowfall 0.0 0.0  
Since 1 July snowfall 35.0 18.0  
Snow Depth 0.00 in    
Sea Level Pressure  
Sea Level Pressure 30.00 in    
Wind  
Wind Speed 9 mph (SSW)    
Max Wind Speed 29 mph    
Max Gust Speed 38 mph    
Visibility 9 miles    
Events Rain , Thunderstorm    
T = Trace of Precipitation, MM = Missing Value Source: NWS Daily Summary

Daily Weather History Graph

Daily Weather History Graph

Search for Another Location

Airport:

Trip Planner

Search our weather history database for the weather conditions in past years. The results will help you decide how hot, cold, wet, or windy it might be!

Date:

Astronomy

Jun. 15, 2013 Rise Set
Actual Time 5:43 AM CDT 8:35 PM CDT
Civil Twilight 5:11 AM CDT 9:07 PM CDT
Nautical Twilight 4:30 AM CDT 9:48 PM CDT
Astronomical Twilight 3:44 AM CDT 10:34 PM CDT
Moon 12:14 PM CDT (6/15) 12:14 AM CDT (6/15)
Length of Visible Light 15h 56m
Length of Day
14h 52m
Waxing Crescent, 40% of the Moon is Illuminated
Jun 15
Waxing Crescent
Jun 16
First Quarter
Jun 23
Full
Jun 29
Last Quarter
Jul 8
New

Hourly Weather History & Observations

Time (CDT) Temp. Heat Index Dew Point Humidity Pressure Visibility Wind Dir Wind Speed Gust Speed Precip Events Conditions
12:54 AM 68.0 °F - 63.0 °F 84% 29.97 in 10.0 mi SSE 5.8 mph - N/A   Clear
1:54 AM 73.0 °F - 64.0 °F 73% 29.95 in 10.0 mi South 15.0 mph - N/A   Clear
2:54 AM 73.0 °F - 63.0 °F 71% 29.94 in 10.0 mi South 13.8 mph - N/A   Clear
3:54 AM 73.9 °F - 64.0 °F 71% 30.04 in 10.0 mi North 9.2 mph - N/A   Overcast
4:01 AM 73.9 °F - 64.0 °F 71% 30.07 in 10.0 mi North 12.7 mph - N/A Thunderstorm Overcast
4:13 AM 73.0 °F - 64.0 °F 73% 30.08 in 8.0 mi NNE 20.7 mph 35.7 mph 0.00 in Rain , Thunderstorm Light Thunderstorms and Rain
4:23 AM 69.1 °F - 64.0 °F 84% 30.08 in 1.8 mi NNE 18.4 mph 32.2 mph 0.06 in Rain , Thunderstorm Heavy Thunderstorms and Rain
4:30 AM 68.0 °F - 64.9 °F 90% 30.07 in 2.0 mi ENE 15.0 mph 25.3 mph 0.21 in Rain , Thunderstorm Heavy Thunderstorms and Rain
4:35 AM 68.0 °F - 64.9 °F 90% 30.07 in 3.0 mi ENE 13.8 mph - 0.28 in Rain , Thunderstorm Thunderstorms and Rain
4:50 AM 66.2 °F - 64.4 °F 94% 30.07 in 10.0 mi East 5.8 mph - 0.32 in Rain Light Rain
4:54 AM 66.9 °F - 64.9 °F 93% 30.04 in 10.0 mi East 6.9 mph - 0.32 in   Mostly Cloudy
5:54 AM 66.9 °F - 64.9 °F 93% 29.97 in 10.0 mi SSE 15.0 mph - N/A   Clear
6:54 AM 68.0 °F - 64.9 °F 90% 30.01 in 10.0 mi SSW 5.8 mph - N/A   Clear
7:54 AM 69.1 °F - 66.0 °F 90% 29.98 in 10.0 mi South 11.5 mph - N/A   Clear
8:54 AM 72.0 °F - 66.0 °F 81% 30.00 in 10.0 mi SSW 10.4 mph - N/A   Clear
9:54 AM 73.9 °F - 68.0 °F 82% 29.97 in 10.0 mi SSW 5.8 mph - N/A   Clear
10:54 AM 75.9 °F - 68.0 °F 76% 29.97 in 10.0 mi SSW 13.8 mph - N/A   Clear
11:54 AM 77.0 °F - 68.0 °F 74% 29.98 in 10.0 mi SSW 6.9 mph - N/A   Clear
12:54 PM 79.0 °F - 70.0 °F 74% 29.99 in 10.0 mi Calm Calm - N/A   Clear
1:54 PM 84.0 °F 89.6 °F 72.0 °F 67% 29.96 in 10.0 mi SW 6.9 mph - N/A   Clear
2:54 PM 82.9 °F 88.8 °F 73.0 °F 72% 29.94 in 10.0 mi SSW 3.5 mph - N/A   Clear
3:54 PM 82.9 °F 88.8 °F 73.0 °F 72% 29.94 in 10.0 mi SSW 9.2 mph - N/A   Mostly Cloudy
4:12 PM 82.9 °F 88.8 °F 73.0 °F 72% 29.96 in 10.0 mi South 10.4 mph - N/A   Scattered Clouds
4:54 PM 80.1 °F 84.2 °F 73.0 °F 79% 29.94 in 10.0 mi South 8.1 mph - N/A   Mostly Cloudy
5:03 PM 78.1 °F - 71.1 °F 79% 29.95 in 10.0 mi SSE 10.4 mph - 0.00 in Rain , Thunderstorm Thunderstorms and Rain
5:30 PM 73.0 °F - 70.0 °F 90% 29.99 in 3.0 mi West 13.8 mph 24.2 mph 0.03 in Rain , Thunderstorm Thunderstorms and Rain
5:54 PM 70.0 °F - 64.9 °F 84% 29.99 in 10.0 mi North 9.2 mph - 0.10 in Rain , Thunderstorm Thunderstorms and Rain
6:37 PM 69.1 °F - 66.0 °F 90% 30.08 in 1.8 mi WNW 16.1 mph 36.8 mph 0.04 in Rain , Thunderstorm Light Thunderstorms and Rain
6:48 PM 69.8 °F - 66.2 °F 88% 30.08 in 3.0 mi WNW 24.2 mph 38.0 mph 0.28 in Rain , Thunderstorm Light Thunderstorms and Rain
6:54 PM 69.1 °F - 66.0 °F 90% 30.07 in 6.0 mi West 18.4 mph 33.4 mph 0.30 in Rain , Thunderstorm Light Thunderstorms and Rain
7:08 PM 68.0 °F - 66.0 °F 93% 30.08 in 4.0 mi West 13.8 mph 25.3 mph 0.09 in Rain , Thunderstorm Light Thunderstorms and Rain
7:54 PM 69.1 °F - 66.9 °F 93% 30.01 in 10.0 mi NNW 13.8 mph - 0.18 in Rain , Thunderstorm Light Thunderstorms and Rain
8:06 PM 69.1 °F - 66.9 °F 93% 30.03 in 10.0 mi NNW 10.4 mph - 0.01 in Rain Light Rain
8:54 PM 68.0 °F - 66.0 °F 93% 29.99 in 10.0 mi WSW 3.5 mph - 0.02 in Rain Light Rain
9:54 PM 69.1 °F - 64.0 °F 84% 29.96 in 10.0 mi SW 11.5 mph - 0.00 in Rain Light Rain
10:54 PM 68.0 °F - 64.0 °F 87% 29.95 in 10.0 mi SSE 10.4 mph - 0.00 in   Overcast
11:54 PM 68.0 °F - 66.0 °F 93% 29.96 in 10.0 mi ESE 8.1 mph - 0.00 in Rain Light Rain